Station MCYI3 - Michigan City Harbor Entrance Light, Michigan City, IN Image indicating link to RSS feed of recent meteorological observations for station MCYI3


Conditions at MCYI3 as of
(8:30 am CDT)
1330 GMT on 04/16/2024:
     

Click on the graph icon in the table below to see a time series plot of the last five days of that observation.

5-day plot - Wind Direction Wind Direction (WDIR):ESE ( 110 deg true )
5-day plot - Wind Speed Wind Speed (WSPD): 12 kts
5-day plot - Wind Gust Wind Gust (GST): 20 kts
5-day plot - Atmospheric Pressure Atmospheric Pressure (PRES):30.00 in
5-day plot - Air Temperature Air Temperature (ATMP): 60.3 °F
5-day plot - Dew Point Dew Point (DEWP): 33.4 °F
5-day plot -  Wind Speed, Wind Gust and Atmospheric Pressure Combined plot of Wind Speed, Gust, and Air Pressure
Previous observations
TIME
(CDT)
5-day plot - Wind Direction
WDIR
 
5-day plot - Wind Speed
WSPD
kts
5-day plot - Wind Gust
GST
kts
5-day plot - Wave Height
WVHT
ft
5-day plot - Dominant Wave Period
DPD
sec
5-day plot - Average Wave Period
APD
sec
5-day plot - Mean Wave Direction
MWD
 
5-day plot - Atmospheric Pressure
PRES
in
5-day plot - Pressure Tendency
PTDY
in
5-day plot - Air Temperature
ATMP
°F
5-day plot - Water Temperature
WTMP
°F
5-day plot - Dew Point
DEWP
°F
5-day plot - Salinity
SAL
psu
5-day plot - Visibility
VIS
nmi
5-day plot - Tide (above MLLW)
TIDE
ft
2024-04-16 08:20 amESE 8 10----30.01- 59.5- 33.4---
2024-04-16 08:10 am E 12 18----30.01- 58.8- 33.1---
2024-04-16 08:00 am E 12 15----30.00-0.01 58.8- 32.9---
2024-04-16 07:50 am E 12 13----30.00- 58.5- 32.7---
2024-04-16 07:40 am E 12 15----30.00- 57.7- 32.9---
2024-04-16 07:30 am E 13 18----30.00- 57.4- 32.5---
2024-04-16 07:20 am E 10 13----30.01- 56.8- 32.5---
2024-04-16 07:10 am E 10 12----30.01- 56.5- 32.5---
2024-04-16 07:00 amENE 12 13----30.01+0.00 55.9- 32.4---
2024-04-16 06:50 am E 9 10----30.01- 55.6- 32.2---
2024-04-16 06:40 amENE 11 12----30.02- 55.0- 32.0---
2024-04-16 06:30 amENE 11 14----30.01- 54.9- 31.8---
2024-04-16 06:20 am E 11 12----30.01- 54.9- 31.6---
2024-04-16 06:10 am E 10 12----30.02- 54.7- 31.5---
2024-04-16 06:00 amENE 11 13----30.01+0.00 54.9- 31.1---
2024-04-16 05:50 am E 11 13----30.01- 55.0- 30.7---
2024-04-16 05:40 am E 11 13----30.02- 55.2- 30.7---
2024-04-16 05:30 am E 9 12----30.01- 55.0- 30.9---
2024-04-16 05:20 am E 10 12----30.01- 55.2- 30.7---
2024-04-16 05:10 am E 10 13----30.01- 55.0- 30.7---
2024-04-16 05:00 am E 10 12----30.01+0.00 55.2- 30.9---
2024-04-16 04:50 am E 11 15----30.01- 55.4- 30.9---
2024-04-16 04:40 am E 13 17----30.01- 55.4- 31.3---
2024-04-16 04:30 am E 13 15----30.00- 55.6- 31.6---
2024-04-16 04:20 am E 14 17----30.00- 55.9- 31.6---
2024-04-16 04:10 am E 14 17----30.00- 56.3- 31.5---
2024-04-16 04:00 am E 12 15----30.01-0.01 56.8- 31.1---
2024-04-16 03:50 am E 11 14----30.01- 56.7- 30.9---
2024-04-16 03:40 am E 12 15----30.01- 56.8- 30.6---
2024-04-16 03:30 amENE 10 12----30.01- 57.0- 30.6---
2024-04-16 03:20 am E 12 14----30.02- 57.4- 30.2---
2024-04-16 03:10 amENE 11 13----30.02- 57.6- 30.4---
2024-04-16 03:00 am E 10 12----30.02-0.01 57.7- 30.4---
2024-04-16 02:50 am E 12 14----30.01- 58.1- 30.2---
2024-04-16 02:40 am E 9 11----30.02- 58.3- 30.0---
2024-04-16 02:30 amENE 10 13----30.01- 58.5- 30.4---
2024-04-16 02:20 am E 12 15----30.01- 58.6- 30.4---
2024-04-16 02:10 amENE 11 13----30.01- 58.8- 30.4---
2024-04-16 02:00 amENE 12 13----30.01-0.01 59.0- 30.2---
2024-04-16 01:50 amENE 10 11----30.01- 58.8- 30.7---
2024-04-16 01:40 amENE 9 12----30.02- 59.0- 30.6---
2024-04-16 01:30 amENE 9 10----30.01- 59.0- 30.7---
2024-04-16 01:20 amENE 8 8----30.02- 57.9- 32.5---
2024-04-16 01:10 amENE 10 10----30.02- 57.2- 33.1---
2024-04-16 01:00 am NE 11 12----30.02-0.01 53.8- 39.7---
2024-04-16 12:50 am NE 14 15----30.01- 57.9- 32.5---
2024-04-16 12:40 am NE 10 11----30.02- 56.7- 34.0---
2024-04-16 12:30 am NE 7 7----30.02- 57.9- 32.5---
2024-04-16 12:20 amENE 6 6----30.03- 58.3- 32.5---
2024-04-16 12:10 amENE 6 7----30.03- 58.5- 32.7---
2024-04-16 12:00 amENE 6 7----30.03+0.01 57.9- 33.3---
2024-04-15 11:50 pmENE 5 6----30.03- 58.1- 33.1---
2024-04-15 11:40 pmENE 5 6----30.03- 58.5- 32.4---
2024-04-15 11:30 pmENE 5 6----30.03- 58.6- 32.4---
2024-04-15 11:20 pmENE 4 5----30.03- 59.0- 32.0---
2024-04-15 11:10 pm E 5 5----30.03- 59.2- 31.8---
2024-04-15 11:00 pm E 5 5----30.02+0.04 57.9- 33.3---
2024-04-15 10:50 pmENE 6 6----30.02- 57.7- 33.8---
2024-04-15 10:40 pmENE 5 5----30.02- 55.0- 40.3---
2024-04-15 10:30 pmENE 5 6----30.02- 54.5- 40.8---
2024-04-15 10:20 pm NE 6 6----30.02- 54.5- 40.5---
2024-04-15 10:10 pm NE 4 4----30.03- 53.8- 43.3---
2024-04-15 10:00 pmENE 4 4----30.03+0.04 54.5- 43.3---
2024-04-15 09:50 pmENE 8 8----30.03- 53.2- 44.1---
2024-04-15 09:40 pm NE 11 11----30.03- 52.7- 44.2---
2024-04-15 09:30 pm NE 11 11----30.03- 53.2- 43.3---
2024-04-15 09:20 pm NE 10 11----30.03- 53.4- 43.0---
2024-04-15 09:10 pm NE 9 9----30.03- 53.4- 43.0---
2024-04-15 09:00 pm NE 13 13----30.02+0.03 55.0- 41.4---
2024-04-15 08:50 pm NE 14 14----30.01- 57.7- 38.3---
2024-04-15 08:40 pmENE 10 10----30.01- 58.3- 36.0---
2024-04-15 08:30 pmENE 10 10----30.00- 53.8- 42.3---
2024-04-15 08:20 pm NE 10 10----30.00- 55.8- 40.6---
2024-04-15 08:10 pm NE 9 9----30.00- 55.9- 38.7---
2024-04-15 08:00 pm NE 10 10----29.99-0.02 58.8- 35.4---
2024-04-15 07:50 pm NE 9 10----29.99- 57.4- 36.7---
2024-04-15 07:40 pm NE 10 10----29.99- 59.0- 35.8---
2024-04-15 07:30 pm NE 7 8----29.99- 58.6- 36.1---
2024-04-15 07:20 pmENE 9 9----30.00- 57.9- 34.9---
2024-04-15 07:10 pm NE 11 11----30.00- 58.5- 36.5---
2024-04-15 07:00 pm NE 12 12----29.99+0.00 57.7- 34.7---
2024-04-15 06:50 pm NE 12 12----30.00- 57.4- 34.9---
2024-04-15 06:40 pm NE 11 11----30.00- 56.8- 35.2---
2024-04-15 06:30 pmENE 11 11----30.00- 55.0- 37.4---
2024-04-15 06:20 pmENE 11 11----30.00- 54.3- 37.9---
2024-04-15 06:10 pmENE 12 12----30.00- 53.8- 38.7---
2024-04-15 06:00 pm NE 13 13----29.99- 54.0- 38.5---
2024-04-15 05:50 pmENE 13 14----30.00- 53.4- 38.3---
2024-04-15 05:40 pm NE 13 13----30.01- 51.6- 41.4---
2024-04-15 05:30 pm NE 13 14----30.00- 51.4- 41.4---
2024-04-15 05:20 pm NE 13 13----30.00- 51.1- 41.5---
2024-04-15 05:10 pm NE 13 13----30.01- 50.4- 42.3---
2024-04-15 05:00 pm NE 12 13----30.01+0.01 50.2- 42.3---
2024-04-15 04:20 pm NE 13 15----30.00- 49.5- 42.3---
2024-04-15 04:10 pm NE 13 14----30.01- 49.6- 41.9---
2024-04-15 04:00 pmNNE 11 12----30.00+0.02 49.6- 42.8---
2024-04-15 03:20 pmNNE 6 7----30.01- 49.1- 42.4---
2024-04-15 03:10 pmNNE 7 8----30.01- 48.7- 42.3---
2024-04-15 02:10 pmWNW 5 6----30.00- 55.6- 42.8---
2024-04-15 02:00 pm NW 2 3----29.99+0.02 53.2- 43.5---
2024-04-15 01:00 pmNNW 7 8----29.98+0.02 56.3- 43.9---
2024-04-15 12:50 pm N 6 7----29.97- 58.3- 42.8---
2024-04-15 12:40 pm N 4 5----29.98- 59.0- 42.4---
2024-04-15 12:30 pmNNE 3 3----29.98- 54.1- 42.8---
2024-04-15 12:20 pmNNE 5 6----29.98- 54.9- 42.8---
2024-04-15 12:10 pm N 3 4----29.98- 57.6- 43.2---
2024-04-15 12:00 pm N 4 5----29.98+0.05 54.9- 43.2---
2024-04-15 11:50 amNNE 4 7----29.98- 53.4- 42.4---
2024-04-15 11:40 amNNE 3 4----29.98- 53.6- 42.8---
2024-04-15 11:30 amNNE 3 4----29.98- 52.9- 43.7---
2024-04-15 11:20 am N 6 7----29.98- 56.1- 43.0---
2024-04-15 11:10 am N 7 9----29.97- 60.4- 37.2---
2024-04-15 11:00 am N 8 11----29.97+0.04 57.9- 42.4---
2024-04-15 10:50 am E 7 9----29.96- 65.8- 36.1---
2024-04-15 10:40 am E 8 12----29.96- 65.3- 36.0---
2024-04-15 10:30 am E 10 13----29.96- 64.9- 36.5---
2024-04-15 10:20 am E 7 11----29.96- 64.6- 36.5---
2024-04-15 10:10 am E 7 9----29.96- 64.0- 36.5---
2024-04-15 10:00 am E 6 10----29.95+0.04 63.1- 37.0---
2024-04-15 09:50 am E 9 11----29.95- 63.1- 36.1---
2024-04-15 09:40 am E 12 14----29.94- 62.8- 35.6---
2024-04-15 09:30 amENE 11 14----29.94- 62.6- 35.1---
2024-04-15 09:20 am E 12 15----29.93- 62.1- 34.7---
2024-04-15 09:10 am E 10 14----29.94- 61.9- 35.6---
2024-04-15 09:00 am E 13 16----29.93+0.05 61.3- 35.2---
2024-04-15 08:50 amENE 9 14----29.94- 60.6- 35.8---